Le nostre stazioni meteo in Italia

Pubblicità
Il mio iltempo24.it
Trevico, Italia (16263): Temperatura & dewpoint: 11.02.2019 13:00:00 - 17.02.2019 13:00:00 (CET)Trevico, Italia (16263): velocità del vento: 11.02.2019 13:00:00 - 17.02.2019 13:00:00 (CET)Trevico, Italia (16263): direzione del vento: 11.02.2019 13:00:00 - 17.02.2019 13:00:00 (CET)Trevico, Italia (16263): visibility: 11.02.2019 13:00:00 - 17.02.2019 13:00:00 (CET)
Data & Tempo tt [°C] td [°C] ff [km/h] ff [kn] dd vv [km]
17.02.2019 13:00:00 7,0 -11,7 8 4 N 30
17.02.2019 12:00:00 - - - - - -
17.02.2019 11:00:00 - - - - - -
17.02.2019 10:00:00 6,6 -22,9 8 4 NNO 30
17.02.2019 09:00:00 - - - - - -
17.02.2019 08:00:00 - - - - - -
17.02.2019 07:00:00 4,2 -24,8 8 4 N 20
17.02.2019 06:00:00 3,0 -25,0 9 5 ENE 10
17.02.2019 05:00:00 3,0 -26,0 8 4 NNE 10
17.02.2019 04:00:00 3,0 -23,7 11 6 N 12
17.02.2019 03:00:00 3,0 -18,0 9 5 NE 10
17.02.2019 02:00:00 2,0 -12,0 11 6 NNE 10
17.02.2019 01:00:00 2,0 -7,1 15 8 NNE 12
17.02.2019 00:00:00 2,0 -9,0 18 10 E 10
16.02.2019 23:00:00 2,0 -11,0 11 6 N 10
16.02.2019 22:00:00 2,0 -9,9 15 8 NNE 12
16.02.2019 21:00:00 2,0 -11,0 21 11 NE 10
16.02.2019 20:00:00 2,0 -5,0 13 7 E 10
16.02.2019 19:00:00 2,0 -2,1 11 6 N 12
16.02.2019 18:00:00 - - - - - -
16.02.2019 17:00:00 - - - - - -
16.02.2019 16:00:00 3,2 -1,4 11 6 E 20
16.02.2019 15:00:00 - - - - - -
16.02.2019 14:00:00 - - - - - -
16.02.2019 13:00:00 2,4 -1,8 9 5 N 20
16.02.2019 12:00:00 - - - - - -
16.02.2019 11:00:00 - - - - - -
16.02.2019 10:00:00 0,6 -1,0 9 5 NE 20
16.02.2019 09:00:00 - - - - - -
16.02.2019 08:00:00 - - - - - -
16.02.2019 07:00:00 0,2 -2,8 13 7 ENE 25
16.02.2019 06:00:00 0,0 -4,0 13 7 E 10
16.02.2019 05:00:00 0,0 -4,0 16 9 ESE 10
16.02.2019 04:00:00 -0,2 -3,9 16 9 E 25
16.02.2019 03:00:00 0,0 -4,0 21 11 ESE 10
16.02.2019 02:00:00 0,0 -4,0 21 11 ESE 10
16.02.2019 01:00:00 0,2 -4,3 21 11 E 25
16.02.2019 00:00:00 0,0 -4,0 16 9 E 10
15.02.2019 23:00:00 1,0 -4,0 24 13 E 10
15.02.2019 22:00:00 0,8 -2,4 18 10 ENE 25
15.02.2019 21:00:00 1,0 0,0 26 14 E 10
15.02.2019 20:00:00 1,0 -2,0 21 11 NNE 10
15.02.2019 19:00:00 1,2 -1,2 26 14 NE 25
15.02.2019 18:00:00 - - - - - -
15.02.2019 17:00:00 1,0 1,0 28 15 ENE -
15.02.2019 16:00:00 0,2 0,2 18 10 NNE -
15.02.2019 15:00:00 1,0 -1,0 21 11 NNE 10
15.02.2019 14:00:00 - - - - - -
15.02.2019 13:00:00 3,0 -0,3 16 9 NNE 20
15.02.2019 12:00:00 - - - - - -
15.02.2019 11:00:00 - - - - - -
15.02.2019 10:00:00 2,4 0,3 11 6 O 18
15.02.2019 09:00:00 - - - - - -
15.02.2019 08:00:00 - - - - - -
15.02.2019 07:00:00 1,4 0,7 15 8 NNE 0,1
15.02.2019 06:00:00 - - - - - -
15.02.2019 05:00:00 - - - - - -
15.02.2019 04:00:00 1,4 -2,0 22 12 NE 18
15.02.2019 03:00:00 - - - - - -
15.02.2019 02:00:00 - - - - - -
15.02.2019 01:00:00 2,4 -5,5 22 12 N 18
15.02.2019 00:00:00 - - - - - -
14.02.2019 23:00:00 - - - - - -
14.02.2019 22:00:00 2,6 -7,3 18 10 NNE 18
14.02.2019 21:00:00 - - - - - -
14.02.2019 20:00:00 - - - - - -
14.02.2019 19:00:00 2,6 -6,3 15 8 NNO 18
14.02.2019 18:00:00 - - - - - -
14.02.2019 17:00:00 - - - - - -
14.02.2019 16:00:00 4,8 -5,3 9 5 N 30
14.02.2019 15:00:00 - - - - - -
14.02.2019 14:00:00 4,0 -2,0 11 6 N 10
14.02.2019 13:00:00 3,8 -2,8 15 8 E 25
14.02.2019 12:00:00 - - - - - -
14.02.2019 11:00:00 - - - - - -
14.02.2019 10:00:00 0,8 -1,0 28 15 ENE 15
14.02.2019 09:00:00 - - - - - -
14.02.2019 08:00:00 - - - - - -
14.02.2019 07:00:00 -0,4 -1,4 13 7 SE 10
14.02.2019 06:00:00 -1,0 -2,0 24 13 N 10
14.02.2019 05:00:00 -1,0 -2,0 22 12 N 10
14.02.2019 04:00:00 -1,0 -2,4 29 16 E 20
14.02.2019 03:00:00 -1,0 -3,0 39 21 NNE 10
14.02.2019 02:00:00 -1,0 -3,0 44 24 ENE 10
14.02.2019 01:00:00 -1,0 -2,7 50 27 E 20
14.02.2019 00:00:00 -1,0 -3,0 44 24 NE 10
13.02.2019 23:00:00 -1,0 -3,0 37 20 ENE 10
13.02.2019 22:00:00 -1,2 -3,4 37 20 N 20
13.02.2019 21:00:00 -2,0 -5,0 22 12 NNE 10
13.02.2019 20:00:00 -1,0 -5,0 31 17 E 10
13.02.2019 19:00:00 -1,0 -4,4 24 13 NE 20
13.02.2019 18:00:00 -1,0 -5,0 21 11 NNE 10
13.02.2019 17:00:00 - - - - - -
13.02.2019 16:00:00 -1,4 -6,5 29 16 NNE 25
13.02.2019 15:00:00 - - - - - -
13.02.2019 14:00:00 - - - - - -
13.02.2019 13:00:00 -1,2 -7,1 16 9 NE 25
13.02.2019 12:00:00 - - - - - -
13.02.2019 11:00:00 - - - - - -
13.02.2019 10:00:00 -2,2 -7,9 28 15 N 30
13.02.2019 09:00:00 - - - - - -
13.02.2019 08:00:00 - - - - - -
13.02.2019 07:00:00 -3,8 -9,2 37 20 E 30
13.02.2019 06:00:00 -2,0 -7,0 31 17 N 10
13.02.2019 05:00:00 -2,0 -7,0 31 17 N 10
13.02.2019 04:00:00 -2,2 -6,9 28 15 NE 15
13.02.2019 03:00:00 - - - - - -
13.02.2019 02:00:00 -2,0 -7,0 18 10 NNE 10
13.02.2019 01:00:00 -2,0 -7,5 11 6 E 15
13.02.2019 00:00:00 -2,0 -8,0 24 13 E 10
12.02.2019 23:00:00 -1,0 -8,0 29 16 E 10
12.02.2019 22:00:00 -2,0 -7,5 31 17 NNE 15
12.02.2019 21:00:00 -1,0 -7,0 31 17 NNE 10
12.02.2019 20:00:00 -1,0 -6,0 21 11 N 10
12.02.2019 19:00:00 -1,2 -6,7 21 11 N 15
12.02.2019 18:00:00 - - - - - -
12.02.2019 17:00:00 - - - - - -
12.02.2019 16:00:00 0,0 -5,6 11 6 E 20
12.02.2019 15:00:00 -1,0 -3,0 28 15 NNE -
12.02.2019 14:00:00 -1,0 -3,0 16 9 O -
12.02.2019 13:00:00 -1,0 -2,4 13 7 N -
12.02.2019 12:00:00 0,0 -2,0 13 7 E -
12.02.2019 11:00:00 - - - - - -
12.02.2019 10:00:00 -0,6 -5,6 28 15 N 25
12.02.2019 09:00:00 - - - - - -
12.02.2019 08:00:00 - - - - - -
12.02.2019 07:00:00 -1,4 -3,3 13 7 N 20
12.02.2019 06:00:00 -1,0 -3,0 13 7 N 10
12.02.2019 05:00:00 -1,0 -2,0 9 5 N 10
12.02.2019 04:00:00 -0,8 -1,9 11 6 N -
12.02.2019 03:00:00 -1,0 -2,0 9 5 NNO -
12.02.2019 02:00:00 -1,0 -2,0 11 6 N -
12.02.2019 01:00:00 -1,4 -2,2 9 5 NNO -
12.02.2019 00:00:00 -1,0 -2,0 9 5 N 10
11.02.2019 23:00:00 -1,0 -2,0 9 5 NNO -
11.02.2019 22:00:00 -0,8 -0,8 13 7 NNO -
11.02.2019 21:00:00 -1,0 -1,0 15 8 NNO 10
11.02.2019 20:00:00 -1,0 -3,0 16 9 NNO 10
11.02.2019 19:00:00 -1,2 -1,2 21 11 ONO 20
11.02.2019 18:00:00 1,0 0,0 15 8 NNO 10
11.02.2019 17:00:00 - - - - - -
11.02.2019 16:00:00 2,6 -1,2 34 18 NNO 15
11.02.2019 15:00:00 - - - - - -
11.02.2019 14:00:00 - - - - - -
11.02.2019 13:00:00 3,8 3,2 34 18 NO 15

tt = Temperatura
td = dewpoint
ff = velocità del vento
dd = direzione del vento
vv = visibility

Stazioni seguenti

WeatherPro
AMSI
MeteoEarth